World > North America > United States > Nebraska   Omaha, NE Website

Omaha, Nebraska Regional Weather

Lat: 41.26N, Lon: 96.01W
Wx Zone: NEZ052
Warning FLW WEATHER ALERT - (More Info. Click Here) Warning
Feedback

Omaha, NE Regional Weather

Expires:201908241200;;130840
ASUS43 KOAX 241110
RWRNE 

WEATHER ROUNDUP FOR NEBRASKA
NATIONAL WEATHER SERVICE OMAHA NE
600 AM CDT SAT AUG 24 2019

NOTES: SATELLITE DATA IS BEING USED TO AUGMENT CLOUD COVER ABOVE
       12000 FEET.
       "FAIR" INDICATES FEW OR NO CLOUDS BELOW 12,000 FEET WITH NO
       SIGNIFICANT WEATHER AND/OR OBSTRUCTIONS TO VISIBILITY.

   

NEZ044-045-051>053-067-241200-
OMAHA AREA
  
CITY           SKY/WX    TMP DP  RH WIND       PRES   REMARKS
OMAHA EPPLEY   CLOUDY    66  59  78 SE9       30.13F                  
BLAIR          FAIR      64  60  85 SE9       30.12F                  
FREMONT        FAIR      67  61  80 E12       30.12S                  
MILLARD        CLOUDY   N/A N/A N/A SE8       30.12S                  
OFFUTT AFB     PTCLDY    66  59  77 SE9       30.16F                  
PLATTSMOUTH    FAIR      65  62  90 SE7       30.13S                  
WAHOO          FAIR      64  62  93 SE7       30.11S                  
$$
  

SKY/WX - Weather  TMP - Temperature  DP - Dew Point  RH - Relative Humidity
WIND - Wind Direction/Speed PRES - Barometric Pressure VSB - Visibility
WCI - Wind Chill Index E13G22 Wind - East Wind 13 mph/Gusts of 22 mph